Details for AirAsia at WMKK




Go Back


Latest METAR
Local Time

WMKK 252200Z VRB01KT 6000 FEW017CB SCT140 BKN280 26/25 Q1007 NOSIG

26/05/2018, 06:14:53

Description
Results
AirAsia Logo
Number of Pilots based at WMKK
0 Pilots Based here
Number of AirAsia Flights Departed from WMKK
0 Flights Departed
Number of AirAsia Flights Arrived at WMKK
0 Flights Arrived
Number of AirAsia Schedules Departing from WMKK
245 Schedules
Number of AirAsia Schedules Arriving at WMKK
250 Schedules
Number of AirAsia Schedules Departing from WMKK availible today
216 Schedules Today
Number of AirAsia Schedules Arriving at WMKK availible today
214 Schedules Today
Average Landing Rate at WMKK
-254 fpm
AirAsia Average Landing Rate at WMKK
0 fpm
Total Fuel Purchased at WMKK by AirAsia
0.00 kgs / 0.00 lbs

Pilots Based at WMKK


Pilot ID
Pilot Name
Pilot Rank
No. of Flights
No. of Flying Hours
There are no pilots assigned to this hub!   Will you be the first?
Content